SCP
0 0 0 0 0 0 0 0 0 0 0 0 0 0 0 0 0 0 0 0 0 0 0 0 0 0 0 0 0 0 0 0 0 0 0 0 0 0 0 0 0 0 0 0
0 0 0 0 0 0 0 0 0 0 0 0 0 0 0 0 0 0 0 0 0 0 0 0 0 0 0 0 0 0 0 0 0 0 0 0 0 0 0 0 0 0 0 0
0 0 0 0 0 0 0 0 0 0 0 0 0 0 0 0 0 0 0 0 0 0 0 0 0 0 0 0 0 0 0 0 0 0 0 0 0 0 0 0 0 0 0 0
0 0 0 0 0 0 0 0 0 0 0 0 0 0 0 0 0 0 0 0 0 0 0 0 0 0 0 0 0 0 0 0 0 0 0 0 0 0 0 0 0 0 0 0
0 0 0 0 0 0 0 0 0 0 0 0 0 0 0 0 0 0 0 0 0 0 0 0 0 0 0 0 0 0 0 0 0 0 0 0 0 0 0 0 0 0 0 0
0 0 0 0 0 0 0 0 0 0 0 0 0 0 0 0 0 0 0 0 0 0 0 0 0 0 0 0 0 0 0 0 0 0 0 0 0 0 0 0 0 0 0 0
0 0 0 0 0 0 0 0 0 0 0 0 0 0 0 0 0 0 0 0 0 0 0 0 0 0 0 0 0 0 0 0 0 0 0 0 0 0 0 0 0 0 0 0
0 0 0 0 0 0 0 0 0 0 0 0 0 0 0 0 0 0 0 0 0 0 0 0 0 0 0 0 0 0 0 0 0 0 0 0 0 0 0 0 0 0 0 0
0 0 0 0 0 0 0 0 0 0 0 0 0 -0 0 0 0 0 0 0 0 0 0 0 0 0 0 0 0 0 0 0 0 0 0 0 0 0 0 0 0 0 0 0
0 0 0 0 0 0 0 0 0 0 0 0 0 0 0 0 0 0 0 0 0 0 0 0 0 0 0 0 0 0 0 0 0 0 0 0 0 0 0 0 0 0 0 0
0 0 0 0 -0 0 0 0 0 0 0 0 0 0 0 0 0 0 0 0 0 0 0 0 0 0 0 0 0 0 0 0 0 0 0 0 0 0 0 0 0 0 0 0
0 0 0 0 0 0 0 0 0 0 0 0 0 0 0 0 0 0 0 0 0 0 0 0 0 0 0 0 0 0 0 0 0 0 0 0 0 0 0 0 0 0 0 0
0 0 0 0 0 0 0 0 0 0 0 0 0 0 0 0 0 0 0 0 0 0 0 0 0 0 0 0 0 0 0 0 0 0 0 0 0 0 0 0 0 0 0 0
0 0 0 0 0 0 0 0 0 0 0 0 0 0 0 0 0 0 0 0 0 0 0 0 0 0 0 0 0 0 0 0 0 0 0 0 0 0 0 0 0 0 0 0
0 -0 0 0 0 0 0 0 0 0 0 0 0 0 0 0 0 0 0 0 0 0 0 0 0 0 0 0 0 0 0 0 0 0 0 0 0 0 0 0 0 0 0 0
-0 -0 -0 0 0 0 0 0 0 0 0 0 0 0 0 0 0 0 0 0 0 0 0 0 0 0 0 0 0 0 0 0 0 0 0 0 0 0 0 0 0 0 0 0
-0 -0 -0 0 0 0 0 0 0 0 0 0 0 0 0 0 0 0 0 0 0 0 0 0 0 0 0 0 0 0 0 0 0 0 0 0 0 0 0 0 0 0 0 0
-0 -0 -0 0 0 0 0 0 0 0 0 0 0 0 0 0 0 0 0 0 0 0 0 0 0 0 0 0 0 0 0 0 0 0 0 0 0 0 0 0 0 0 0 0
0 0 0 0 0 0 0 0 0 0 0 0 0 0 0 0 0 0 0 0 0 0 0 0 0 0 0 0 0 0 0 0 0 0 0 0 0 0 0 0 0 0 0 0
0 0 0 0 0 0 0 0 0 0 0 0 0 0 0 0 0 0 0 0 0 0 0 0 0 0 0 0 0 0 0 0 0 0 0 0 0 0 0 0 0 0 0 0
0 0 0 0 0 0 0 0 0 0 0 0 0 0 0 0 0 0 0 0 0 0 0 0 0 0 0 0 0 0 0 0 0 0 0 0 0 0 0 0 0 0 0 0
0 0 0 0 0 0 0 0 0 0 0 0 0 0 0 0 0 0 0 0 0 0 0 0 0 0 0 0 0 0 0 0 0 0 0 0 0 0 0 0 0 0 0 0
0 0 0 0 0 0 0 0 0 0 0 0 0 0 0 0 0 0 0 0 0 0 0 0 0 0 0 0 0 0 0 0 0 0 0 0 0 0 0 0 0 0 0 0
0 0 0 0 0 0 0 0 0 0 0 0 0 0 0 0 0 0 0 0 0 0 0 0 0 0 0 0 0 0 0 0 0 0 0 0 0 0 0 0 0 0 0 0
0 0 0 0 0 0 0 0 0 0 0 0 0 0 0 0 0 0 0 0 0 0 0 0 0 0 0 0 0 0 0 0 0 0 0 0 0 0 0 0 0 0 0 0
0 0 0 0 0 0 0 0 0 0 0 0 0 0 0 0 0 0 0 0 0 0 0 0 0 0 0 0 0 0 0 0 0 0 0 0 0 0 0 0 0 0 0 0
0 0 0 0 0 0 0 0 0 0 0 0 0 0 0 0 0 0 0 0 0 0 0 0 0 0 0 0 0 0 0 0 0 0 0 0 0 0 0 0 0 0 0 0
Wind_Speed
4 3 2 3 4 4 5 7 8 7 7 9 7 5 4 2 1 1 1 1 3 3 2 2 2 2 2 2 2 3 4 5 5 4 4 3 3 3 3 3 3 3 2 2
2 2 2 4 5 5 5 5 6 5 8 7 4 1 1 2 2 2 2 2 3 3 3 3 3 3 2 2 2 3 4 4 4 3 3 3 3 3 3 3 3 3 3 3
3 3 2 5 6 6 5 5 6 8 8 3 2 3 3 3 3 4 4 3 4 4 4 4 4 4 3 3 2 2 3 3 3 3 3 4 4 3 4 4 3 3 3 3
1 1 5 7 3 4 4 4 5 4 3 3 4 3 3 3 4 4 4 3 3 3 3 2 2 2 2 2 2 3 2 2 2 3 3 3 3 4 4 3 4 4 4 4
3 3 7 7 3 4 4 5 4 5 3 2 0 2 3 2 3 4 3 3 3 3 2 2 2 2 3 2 2 2 3 3 2 3 2 2 3 4 4 3 3 3 3 3
3 3 6 6 3 2 2 4 4 4 4 2 3 0 5 3 1 2 1 1 1 1 1 2 2 3 3 2 2 3 3 3 2 2 3 3 4 3 3 3 3 2 2 2
4 5 8 7 3 3 3 7 3 4 5 5 5 5 3 1 1 1 0 0 1 2 1 1 2 3 3 2 3 3 2 1 2 2 3 3 2 2 2 2 2 1 1 1
5 4 9 3 4 6 7 2 1 2 3 4 4 2 1 1 1 0 1 1 1 2 1 0 2 3 2 2 2 1 1 1 1 2 2 2 1 1 1 2 2 2 1 1
8 8 5 3 5 4 2 2 2 2 2 3 2 2 2 1 1 1 1 1 1 2 1 0 0 2 2 2 1 1 2 2 1 1 0 1 2 2 1 2 2 2 1 1
4 6 4 4 3 2 2 2 2 2 2 3 3 3 2 2 2 1 1 1 1 2 2 0 1 1 1 1 1 2 2 1 1 1 0 1 1 1 1 1 2 2 2 1
5 5 4 4 4 3 2 1 1 1 2 3 3 2 3 2 2 2 1 1 2 2 2 2 1 0 0 1 2 2 2 1 1 1 1 1 1 0 1 1 2 3 2 2
7 6 5 6 4 2 2 2 2 2 2 2 3 4 3 3 3 2 2 2 2 2 2 1 1 0 1 1 2 3 2 1 1 1 1 1 1 1 3 2 1 1 1 2
6 4 5 5 3 2 3 3 3 3 3 3 2 3 3 3 3 2 2 2 3 3 2 2 1 1 1 1 2 3 3 2 1 1 1 1 2 2 0 2 3 3 2 1
5 3 4 4 4 3 2 2 1 1 1 2 2 2 3 2 2 2 2 3 2 2 2 2 1 1 1 1 2 2 2 2 2 1 1 1 1 2 2 1 0 1 2 2
5 5 6 3 2 2 2 2 2 1 1 1 2 3 3 3 3 3 2 2 2 2 1 1 1 1 1 1 2 2 2 1 1 1 1 1 1 1 1 1 1 1 0 1
3 2 3 3 4 3 2 3 3 3 3 2 2 2 3 3 3 2 2 3 3 3 2 2 2 2 1 1 2 2 1 2 2 2 2 1 1 1 1 1 1 1 1 1
4 4 4 4 5 4 4 4 4 4 3 3 3 2 2 2 2 2 2 2 3 3 2 2 2 1 1 2 2 1 1 1 2 2 2 1 1 1 1 1 2 1 1 1
6 6 6 5 5 4 4 3 4 4 3 3 3 3 3 3 3 3 3 2 2 1 0 1 1 1 1 1 1 1 1 1 2 2 1 1 1 1 1 1 1 1 1 0
3 3 3 3 4 4 4 4 4 3 3 3 4 4 4 3 3 3 3 3 3 2 1 1 2 2 1 1 2 1 2 2 2 2 1 1 1 1 1 1 1 1 1 1
1 1 2 2 2 2 3 3 3 3 3 3 4 3 3 3 3 3 3 3 3 2 2 2 2 2 2 1 2 2 2 2 2 2 1 1 1 1 1 1 1 1 1 1
1 1 1 2 2 2 2 3 3 3 2 3 4 4 4 3 4 4 3 2 2 2 3 3 2 2 1 2 3 2 2 2 2 2 2 1 1 1 1 1 1 1 1 1
1 1 1 1 1 1 1 2 2 3 2 3 3 3 3 3 3 3 2 2 2 3 3 2 2 2 3 3 2 2 2 2 1 1 1 1 1 1 1 1 1 1 1 1
0 0 1 1 2 1 1 1 1 2 3 3 3 4 4 4 3 4 2 2 2 4 3 2 3 4 4 3 2 2 2 2 1 1 1 1 2 2 2 2 1 1 1 1
1 1 1 1 2 2 1 1 1 1 2 2 2 3 4 3 1 2 2 3 4 4 2 3 4 4 4 2 2 2 2 1 1 1 1 1 1 1 1 1 1 1 1 2
1 1 1 2 2 2 2 2 1 1 1 1 1 1 2 2 3 2 2 3 4 3 2 3 4 3 2 2 2 2 2 1 1 1 1 1 1 1 1 1 2 2 2 2
1 2 2 2 2 2 2 2 2 1 1 1 0 0 1 1 2 2 2 2 3 3 2 2 2 2 1 1 1 2 1 1 1 1 1 1 2 2 2 2 2 2 2 2
1 1 1 0 0 1 2 2 2 2 2 2 2 1 1 2 2 2 3 2 2 2 1 1 2 2 1 1 1 1 1 1 1 1 1 2 2 2 2 2 2 2 2 2
Wind_Direction
236 243 224 237 247 209 199 200 204 228 233 256 258 254 252 239 202 164 203 186 188 194 196 190 190 194 191 194 190 180 175 186 203 206 207 210 209 208 205 200 202 205 205 222
277 271 247 268 263 236 231 224 221 240 261 261 256 246 254 243 193 195 229 241 222 202 195 198 200 200 190 189 192 175 182 198 201 197 201 206 210 208 207 212 215 208 213 221
264 304 339 274 242 217 213 214 196 220 242 241 251 240 239 236 222 224 232 230 221 213 209 209 208 196 192 196 177 169 187 199 197 196 204 213 211 206 207 213 214 219 224 221
198 55 246 246 229 197 206 240 218 223 237 224 230 239 252 226 212 233 239 236 233 228 227 218 191 173 163 152 161 171 181 194 199 195 205 210 206 215 219 213 210 216 222 223
150 217 271 289 256 182 186 264 224 212 232 247 289 19 315 259 215 228 238 237 228 219 211 188 171 161 144 148 159 165 184 200 208 198 203 207 220 228 227 219 218 217 221 220
157 197 241 250 240 188 128 275 240 189 201 193 115 106 270 267 241 266 276 234 202 180 154 161 178 153 146 161 172 201 211 211 202 192 198 214 224 231 230 215 219 211 217 219
186 222 258 252 240 129 178 242 229 187 190 179 194 215 244 266 282 276 304 333 154 142 152 183 167 150 156 175 217 230 220 203 200 200 208 215 221 224 203 186 181 190 204 237
167 208 252 241 145 183 216 241 200 193 193 194 221 249 235 226 240 39 18 29 120 122 126 162 154 151 163 212 236 209 162 182 207 212 219 198 195 221 196 168 161 178 191 256
192 214 238 217 213 238 209 212 216 198 219 192 209 239 241 229 199 198 174 155 142 135 125 14 164 156 182 235 211 159 143 166 187 185 201 168 166 177 177 170 167 183 179 206
246 260 257 259 260 272 244 231 238 205 190 181 207 221 225 225 205 198 188 176 148 127 137 207 246 189 195 214 184 145 150 163 157 139 101 83 112 142 160 181 176 180 181 195
253 270 290 275 237 239 266 271 271 248 210 193 188 212 206 213 214 207 205 199 165 165 177 208 210 149 175 175 144 135 140 142 134 138 146 124 95 121 200 216 194 182 195 193
235 235 219 255 254 218 210 237 235 237 260 237 194 196 195 205 210 198 192 183 164 165 168 193 182 179 220 175 153 147 144 149 153 159 155 144 129 48 21 30 27 97 144 152
239 247 236 252 257 241 229 235 226 215 222 232 225 198 187 192 196 186 181 176 181 181 180 179 165 206 246 179 157 156 159 166 161 159 163 169 160 153 130 14 27 30 34 49
234 231 252 248 245 252 238 232 211 215 235 214 208 196 183 175 171 178 201 198 184 163 161 166 157 228 245 175 155 159 162 168 160 161 171 177 178 174 173 165 125 351 358 13
244 231 228 236 232 233 208 174 163 208 214 226 197 176 173 174 183 201 203 164 141 141 157 162 167 247 248 172 160 167 168 172 164 157 158 161 159 155 160 171 175 191 3 349
245 242 217 213 222 228 208 193 197 219 215 203 199 192 187 180 178 173 167 158 153 175 192 189 210 237 214 160 155 162 174 180 159 147 143 147 157 161 174 182 181 183 199 235
209 229 228 226 227 227 221 215 207 209 206 208 210 189 163 151 147 161 178 184 175 178 184 192 215 230 184 157 155 158 162 175 158 133 141 158 167 177 184 178 181 190 212 213
222 227 221 215 212 214 219 210 200 195 199 202 182 162 164 172 185 194 187 159 132 113 175 210 185 147 136 140 150 154 150 147 137 141 143 143 153 169 172 179 184 194 234 234
229 225 225 219 213 203 201 199 195 194 195 176 170 180 187 190 187 177 159 150 156 174 228 196 170 137 133 150 128 123 126 126 126 130 136 151 141 145 167 179 193 198 192 185
226 214 205 208 199 189 195 194 182 187 193 176 171 172 181 193 177 166 160 174 201 198 181 165 151 144 147 156 129 117 130 139 145 144 140 142 151 160 160 171 189 205 195 192
217 199 183 187 192 194 186 176 170 186 191 176 178 190 197 194 173 162 159 190 237 160 151 157 139 147 153 145 133 123 135 146 151 160 166 168 173 178 178 186 198 208 217 213
213 182 177 161 149 168 180 158 164 176 173 178 185 183 173 172 170 166 177 193 193 168 147 148 152 164 153 136 124 129 136 144 153 164 175 178 179 184 192 199 213 217 216 220
179 177 167 158 154 154 119 128 156 166 175 181 183 183 181 181 175 167 192 210 178 173 151 159 176 172 155 137 136 140 145 153 165 176 183 191 197 199 202 211 219 217 209 211
172 171 172 138 116 119 142 208 162 155 160 170 178 176 167 162 177 200 179 171 166 163 156 166 172 167 150 132 141 144 154 171 180 176 177 190 205 210 210 214 219 222 218 216
189 178 155 141 157 187 197 175 134 122 114 112 125 143 160 169 174 178 158 162 164 150 144 166 165 158 139 135 149 157 167 183 177 173 185 198 210 218 224 224 223 225 225 227
189 200 204 204 203 193 170 151 152 156 143 134 100 106 120 130 141 141 138 147 155 153 148 156 159 154 139 150 163 171 176 205 227 209 203 213 218 220 226 233 240 237 233 234
188 179 167 159 223 174 162 161 166 177 175 168 167 163 141 135 134 136 136 140 148 154 156 158 156 160 164 171 174 177 179 188 194 206 215 220 220 223 227 230 236 241 239 234